FCA1MB LFMD-LFTH

Flight info

Callsign FCA1MB
Flight time 0h 13m
Altitude 7000
Route ROLUP DCT RAPED DCT RUBIT
Aircraft E55P/M-SBDFGRWY/SU1

Departure

Time 2026-05-07 15:11
Airport Cannes Mandelieu Airport (LFMD)

Arrival

Time 2026-05-07 15:24
Airport Toulon-Hyères Airport (LFTH)
Time Latitude Longitude Altitude Speed Heading
2026-05-07 14:46 43.54563 6.95391 25 ft 0 kts 175°
2026-05-07 15:06 43.54560 6.95392 25 ft 1 kts 175°
2026-05-07 15:06 43.54545 6.95393 25 ft 3 kts 190°
2026-05-07 15:07 43.54532 6.95357 25 ft 5 kts 264°
2026-05-07 15:07 43.54530 6.95309 25 ft 3 kts 297°
2026-05-07 15:07 43.54555 6.95300 25 ft 4 kts 352°
2026-05-07 15:07 43.54589 6.95294 25 ft 5 kts 353°
2026-05-07 15:08 43.54635 6.95286 25 ft 7 kts 353°
2026-05-07 15:08 43.54693 6.95275 25 ft 9 kts 352°
2026-05-07 15:08 43.54763 6.95263 25 ft 10 kts 352°
2026-05-07 15:08 43.54837 6.95250 25 ft 10 kts 352°
2026-05-07 15:09 43.54909 6.95237 25 ft 10 kts 353°
2026-05-07 15:09 43.54983 6.95223 25 ft 11 kts 350°
2026-05-07 15:09 43.55009 6.95156 25 ft 3 kts 262°
2026-05-07 15:09 43.55005 6.95117 25 ft 4 kts 262°
2026-05-07 15:10 43.54998 6.95071 25 ft 5 kts 237°
2026-05-07 15:10 43.54963 6.95057 26 ft 1 kts 172°
2026-05-07 15:10 43.54962 6.95057 26 ft 0 kts 172°
2026-05-07 15:10 43.54921 6.95064 25 ft 30 kts 172°
2026-05-07 15:11 43.54400 6.95154 25 ft 116 kts 172°
2026-05-07 15:11 43.53556 6.95336 603 ft 125 kts 169°
2026-05-07 15:11 43.52707 6.95571 1288 ft 126 kts 169°
2026-05-07 15:11 43.51855 6.95763 1930 ft 126 kts 172°
2026-05-07 15:12 43.51070 6.96291 2503 ft 136 kts 140°
2026-05-07 15:12 43.50311 6.97021 3268 ft 140 kts 152°
2026-05-07 15:12 43.49254 6.97545 3461 ft 190 kts 179°
2026-05-07 15:12 43.48019 6.96949 4426 ft 193 kts 208°
2026-05-07 15:13 43.46888 6.96105 5463 ft 192 kts 207°
2026-05-07 15:13 43.45593 6.95204 5865 ft 229 kts 207°
2026-05-07 15:13 43.44116 6.94152 6592 ft 247 kts 207°
2026-05-07 15:13 43.42513 6.93013 6965 ft 269 kts 208°
2026-05-07 15:14 43.40860 6.91838 6990 ft 268 kts 208°
2026-05-07 15:14 43.39192 6.90655 6986 ft 267 kts 208°
2026-05-07 15:14 43.37592 6.89357 6942 ft 267 kts 222°
2026-05-07 15:14 43.36633 6.87216 6964 ft 268 kts 250°
2026-05-07 15:15 43.35921 6.84826 6958 ft 275 kts 246°
2026-05-07 15:15 43.35154 6.82340 6951 ft 282 kts 247°
2026-05-07 15:15 43.34375 6.79847 6969 ft 288 kts 246°
2026-05-07 15:15 43.33578 6.77296 6962 ft 292 kts 246°
2026-05-07 15:16 43.32790 6.74778 6948 ft 282 kts 246°
2026-05-07 15:16 43.32030 6.72357 6945 ft 274 kts 246°
2026-05-07 15:16 43.31275 6.69950 6949 ft 268 kts 247°
2026-05-07 15:16 43.30541 6.67611 6943 ft 264 kts 247°
2026-05-07 15:17 43.29821 6.65315 6948 ft 263 kts 247°
2026-05-07 15:17 43.29101 6.63019 6962 ft 263 kts 247°
2026-05-07 15:17 43.28371 6.60695 6959 ft 263 kts 247°
2026-05-07 15:17 43.27646 6.58391 6952 ft 265 kts 247°
2026-05-07 15:18 43.26917 6.56079 6953 ft 264 kts 246°
2026-05-07 15:18 43.26188 6.53747 6962 ft 264 kts 247°
2026-05-07 15:18 43.25468 6.51429 6957 ft 264 kts 247°
2026-05-07 15:18 43.24748 6.49101 6946 ft 263 kts 247°
2026-05-07 15:19 43.24036 6.46792 6962 ft 261 kts 247°
2026-05-07 15:19 43.23328 6.44467 6711 ft 258 kts 248°
2026-05-07 15:19 43.22673 6.42260 6356 ft 250 kts 248°
2026-05-07 15:19 43.22001 6.40060 5888 ft 246 kts 247°
2026-05-07 15:20 43.21346 6.37921 5451 ft 244 kts 248°
2026-05-07 15:20 43.20725 6.35767 4887 ft 245 kts 249°
2026-05-07 15:20 43.20106 6.33626 4621 ft 233 kts 247°
2026-05-07 15:20 43.19458 6.31671 4413 ft 212 kts 243°
2026-05-07 15:21 43.18779 6.29976 3924 ft 201 kts 239°
2026-05-07 15:21 43.17984 6.28434 3269 ft 198 kts 232°
2026-05-07 15:21 43.17129 6.26985 2587 ft 199 kts 231°
2026-05-07 15:21 43.16241 6.25584 2032 ft 192 kts 229°
2026-05-07 15:22 43.15401 6.24226 1629 ft 179 kts 231°
2026-05-07 15:22 43.14650 6.22957 1370 ft 167 kts 232°
2026-05-07 15:22 43.13935 6.21745 1249 ft 155 kts 231°
2026-05-07 15:22 43.13327 6.20720 1112 ft 127 kts 232°
2026-05-07 15:23 43.12783 6.19816 841 ft 117 kts 231°
2026-05-07 15:23 43.12297 6.18970 608 ft 110 kts 233°
2026-05-07 15:23 43.11839 6.18178 422 ft 102 kts 231°
2026-05-07 15:23 43.11402 6.17427 291 ft 102 kts 230°
2026-05-07 15:24 43.10951 6.16676 164 ft 101 kts 231°
2026-05-07 15:24 43.10513 6.15934 21 ft 96 kts 231°
2026-05-07 15:24 43.10152 6.15320 12 ft 66 kts 230°
2026-05-07 15:24 43.09915 6.14919 12 ft 45 kts 231°
2026-05-07 15:25 43.09771 6.14675 13 ft 22 kts 230°
2026-05-07 15:25 43.09719 6.14623 13 ft 8 kts 137°
2026-05-07 15:25 43.09675 6.14682 12 ft 9 kts 136°
2026-05-07 15:25 43.09622 6.14753 12 ft 11 kts 134°
2026-05-07 15:26 43.09555 6.14846 12 ft 15 kts 135°
2026-05-07 15:26 43.09472 6.14959 12 ft 18 kts 135°
2026-05-07 15:26 43.09373 6.15094 11 ft 21 kts 134°
2026-05-07 15:26 43.09262 6.15245 11 ft 22 kts 136°
2026-05-07 15:27 43.09164 6.15378 11 ft 12 kts 131°
2026-05-07 15:27 43.09178 6.15477 11 ft 12 kts 45°
2026-05-07 15:27 43.09242 6.15563 11 ft 13 kts 44°
2026-05-07 15:27 43.09243 6.15641 11 ft 8 kts 173°
2026-05-07 15:28 43.09181 6.15660 11 ft 9 kts 134°
2026-05-07 15:28 43.09152 6.15707 11 ft 4 kts 150°
2026-05-07 15:28 43.09134 6.15720 12 ft 0 kts 78°